OMA154 LSZH-OOMS

Flight info

Callsign OMA154
Flight time N/A
Altitude 37000
Route DEGES Z2 TUNUM Z204 GEDSO DCT VEKEN DCT MSR DCT PINDO DCT KEA DCT KUMBI L612 BLT A16 CVO L315 HGD M872 BOVET DCT MEDRO J852 GOKSA M872 BDB Y214 KUTNA M440 TULBU
Aircraft B789/H-SDE1E2E3FGHIJ2J3J4J5M1RWXY/LB1D1

Departure

Time N/A
Airport Zürich Airport (LSZH)

Arrival

Time 2026-05-04 18:23
Airport Muscat International Airport (OOMS)
Time Latitude Longitude Altitude Speed Heading
2026-05-04 18:11 23.63752 58.03413 11024 ft 380 kts 79°
2026-05-04 18:11 23.64220 58.06259 11016 ft 381 kts 80°
2026-05-04 18:12 23.64662 58.09105 11014 ft 381 kts 80°
2026-05-04 18:12 23.65106 58.11958 11016 ft 381 kts 80°
2026-05-04 18:12 23.65555 58.14769 11013 ft 381 kts 79°
2026-05-04 18:12 23.66010 58.17615 11014 ft 381 kts 80°
2026-05-04 18:13 23.66460 58.20466 11007 ft 381 kts 80°
2026-05-04 18:13 23.66908 58.23316 11012 ft 381 kts 80°
2026-05-04 18:13 23.68014 58.28976 11004 ft 381 kts 76°
2026-05-04 18:14 23.68546 58.31772 11006 ft 381 kts 78°
2026-05-04 18:14 23.69080 58.34582 11001 ft 367 kts 77°
2026-05-04 18:14 23.69638 58.37208 10987 ft 344 kts 76°
2026-05-04 18:15 23.70221 58.42030 10980 ft 304 kts 84°
2026-05-04 18:15 23.70663 58.46630 10298 ft 307 kts 85°
2026-05-04 18:15 23.70835 58.48942 9734 ft 310 kts 86°
2026-05-04 18:16 23.71007 58.51299 9113 ft 311 kts 86°
2026-05-04 18:16 23.70841 58.53602 8493 ft 299 kts 112°
2026-05-04 18:16 23.69766 58.55449 7899 ft 282 kts 140°
2026-05-04 18:17 23.66433 58.56776 6570 ft 246 kts 178°
2026-05-04 18:17 23.64788 58.56520 5877 ft 237 kts 204°
2026-05-04 18:17 23.62890 58.53892 4429 ft 228 kts 258°
2026-05-04 18:18 23.62697 58.52175 3786 ft 224 kts 265°
2026-05-04 18:18 23.62569 58.50550 3534 ft 209 kts 265°
2026-05-04 18:18 23.62445 58.48989 3284 ft 202 kts 264°
2026-05-04 18:18 23.62326 58.47491 3031 ft 195 kts 264°
2026-05-04 18:19 23.62099 58.44636 2557 ft 183 kts 264°
2026-05-04 18:19 23.61991 58.43275 2325 ft 177 kts 264°
2026-05-04 18:19 23.61886 58.41959 2108 ft 171 kts 264°
2026-05-04 18:20 23.61784 58.40679 1906 ft 171 kts 264°
2026-05-04 18:20 23.61682 58.39397 1681 ft 168 kts 264°
2026-05-04 18:20 23.61583 58.38163 1484 ft 159 kts 264°
2026-05-04 18:20 23.61487 58.36962 1300 ft 158 kts 264°
2026-05-04 18:21 23.61392 58.35787 1114 ft 157 kts 264°
2026-05-04 18:21 23.61296 58.34607 950 ft 156 kts 265°
2026-05-04 18:21 23.61201 58.33422 769 ft 157 kts 265°
2026-05-04 18:21 23.61110 58.32231 553 ft 157 kts 265°
2026-05-04 18:22 23.61012 58.31039 332 ft 158 kts 265°
2026-05-04 18:22 23.60918 58.29853 143 ft 157 kts 265°
2026-05-04 18:22 23.60826 58.28681 41 ft 144 kts 265°
2026-05-04 18:22 23.60765 58.27896 39 ft 66 kts 264°
2026-05-04 18:23 23.60729 58.27482 40 ft 45 kts 264°
2026-05-04 18:23 23.60692 58.27159 42 ft 40 kts 255°
2026-05-04 18:23 23.60582 58.26932 41 ft 35 kts 234°
2026-05-04 18:23 23.60465 58.26790 40 ft 16 kts 193°
2026-05-04 18:24 23.60412 58.26823 40 ft 2 kts 98°
2026-05-04 18:24 23.60417 58.26862 38 ft 11 kts 83°
2026-05-04 18:24 23.60426 58.26966 40 ft 17 kts 85°
2026-05-04 18:24 23.60438 58.27121 40 ft 22 kts 85°
2026-05-04 18:25 23.60453 58.27299 40 ft 25 kts 85°
2026-05-04 18:25 23.60468 58.27489 39 ft 25 kts 85°
2026-05-04 18:25 23.60483 58.27678 39 ft 25 kts 85°
2026-05-04 18:25 23.60497 58.27869 39 ft 25 kts 85°
2026-05-04 18:26 23.60511 58.28057 39 ft 25 kts 85°
2026-05-04 18:26 23.60526 58.28237 39 ft 21 kts 85°
2026-05-04 18:26 23.60535 58.28383 39 ft 14 kts 97°
2026-05-04 18:26 23.60473 58.28437 39 ft 12 kts 171°
2026-05-04 18:27 23.60407 58.28459 39 ft 6 kts 122°
2026-05-04 18:27 23.60407 58.28490 39 ft 5 kts 84°
2026-05-04 18:27 23.60410 58.28532 39 ft 6 kts 85°
2026-05-04 18:27 23.60412 58.28558 39 ft 0 kts 85°